When you browse on this site, cookies collect data to enhance your experience and personalize the content and advertising you see.
Visit our Privacy Policy to learn more. By continuing to use the site, you agree to this use of cookies and data.
  • In Austria
  • List of Countries
  • For 7 days
  • Water Temperature
  • Satellite Maps
  • Weather Map
  • News
  • Weather Widgets
  • user-avatar
    Login

    Hourly Weather San Miguel de Tucumán

    Today, 21 November, Wednesday

    Time Temperature Precipitation Wind Pressure Humidity
    00:00 +26°C° 0 mm 2 mps 718 mmHg 76%
    01:00 +26°C° 0 mm 2 mps 718 mmHg 75%
    02:00 +25°C° 0 mm 2 mps 717 mmHg 74%
    03:00 +25°C° 0 mm 2 mps 717 mmHg 72%
    04:00 +25°C° 0 mm 2 mps 717 mmHg 71%
    05:00 +25°C° 0 mm 2 mps 717 mmHg 70%
    06:00 +27°C° 0 mm 2 mps 717 mmHg 65%
    07:00 +28°C° 0 mm 2 mps 718 mmHg 60%
    08:00 +30°C° 0 mm 3 mps 718 mmHg 57%
    09:00 +33°C° 0 mm 3 mps 718 mmHg 53%
    10:00 +34°C° 0 mm 3 mps 717 mmHg 48%
    11:00 +36°C° 0 mm 3 mps 717 mmHg 44%
    12:00 +36°C° 0 mm 3 mps 717 mmHg 43%
    13:00 +37°C° 0 mm 3 mps 716 mmHg 42%
    14:00 +38°C° 0 mm 4 mps 715 mmHg 42%
    15:00 +37°C° 0.1 mm 4 mps 715 mmHg 44%
    16:00 +36°C° 0.1 mm 3 mps 714 mmHg 46%
    17:00 +36°C° 0.1 mm 3 mps 713 mmHg 49%
    18:00 +34°C° 0.1 mm 3 mps 714 mmHg 54%
    19:00 +31°C° 0.1 mm 3 mps 714 mmHg 59%
    20:00 +30°C° 0.1 mm 2 mps 714 mmHg 64%
    21:00 +29°C° 0.1 mm 2 mps 715 mmHg 65%
    22:00 +29°C° 0.1 mm 2 mps 715 mmHg 66%
    23:00 +28°C° 0.1 mm 2 mps 716 mmHg 67%

    Tomorrow, 22 November, Thursday

    Time Temperature Precipitation Wind Pressure Humidity
    00:00 +28°C° 0.2 mm 2 mps 715 mmHg 66%
    01:00 +28°C° 0.2 mm 2 mps 715 mmHg 66%
    02:00 +27°C° 0.2 mm 2 mps 714 mmHg 66%
    03:00 +27°C° 0 mm 2 mps 714 mmHg 65%
    04:00 +27°C° 0 mm 2 mps 714 mmHg 64%
    05:00 +26°C° 0 mm 2 mps 714 mmHg 63%
    06:00 +28°C° 0 mm 2 mps 714 mmHg 59%
    07:00 +30°C° 0 mm 2 mps 715 mmHg 56%
    08:00 +32°C° 0 mm 2 mps 715 mmHg 52%
    09:00 +34°C° 0 mm 2 mps 715 mmHg 48%
    10:00 +36°C° 0 mm 2 mps 716 mmHg 43%
    11:00 +38°C° 0 mm 2 mps 716 mmHg 38%
    12:00 +38°C° 0 mm 2 mps 715 mmHg 38%
    13:00 +38°C° 0 mm 2 mps 715 mmHg 37%
    14:00 +38°C° 0 mm 3 mps 715 mmHg 37%
    15:00 +38°C° 0.1 mm 3 mps 715 mmHg 39%
    16:00 +37°C° 0.1 mm 3 mps 714 mmHg 41%
    17:00 +37°C° 0.1 mm 2 mps 714 mmHg 43%
    18:00 +33°C° 2.1 mm 3 mps 715 mmHg 57%
    19:00 +29°C° 2.1 mm 3 mps 715 mmHg 70%
    20:00 +26°C° 2.1 mm 3 mps 716 mmHg 84%
    21:00 +26°C° 1.5 mm 3 mps 717 mmHg 85%
    22:00 +26°C° 1.5 mm 3 mps 717 mmHg 87%
    23:00 +25°C° 1.5 mm 3 mps 718 mmHg 88%

    Day after tomorrow, 23 November, Friday

    Time Temperature Precipitation Wind Pressure Humidity
    00:00 +25°C° 0.3 mm 3 mps 718 mmHg 89%
    01:00 +25°C° 0.3 mm 2 mps 718 mmHg 89%
    02:00 +25°C° 0.3 mm 2 mps 718 mmHg 89%
    03:00 +24°C° 0.1 mm 2 mps 718 mmHg 90%
    04:00 +24°C° 0.1 mm 1 mps 718 mmHg 91%
    05:00 +24°C° 0.1 mm 1 mps 718 mmHg 92%
    06:00 +25°C° 0.4 mm 1 mps 718 mmHg 87%
    07:00 +26°C° 0.4 mm 2 mps 719 mmHg 82%
    08:00 +27°C° 0.4 mm 2 mps 719 mmHg 77%
    09:00 +28°C° 0.1 mm 2 mps 719 mmHg 72%
    10:00 +29°C° 0.1 mm 2 mps 719 mmHg 67%
    11:00 +30°C° 0.1 mm 3 mps 719 mmHg 63%
    12:00 +31°C° 0.2 mm 3 mps 718 mmHg 61%
    13:00 +31°C° 0.2 mm 3 mps 717 mmHg 59%
    14:00 +33°C° 0.2 mm 3 mps 717 mmHg 58%
    15:00 +31°C° 0.7 mm 3 mps 716 mmHg 61%
    16:00 +30°C° 0.7 mm 3 mps 716 mmHg 65%
    17:00 +29°C° 0.7 mm 3 mps 716 mmHg 69%
    18:00 +28°C° 0.5 mm 2 mps 716 mmHg 75%
    19:00 +27°C° 0.5 mm 2 mps 717 mmHg 80%
    20:00 +26°C° 0.5 mm 1 mps 717 mmHg 86%
    21:00 +25°C° 0.4 mm 1 mps 718 mmHg 88%
    22:00 +25°C° 0.4 mm 1 mps 719 mmHg 89%
    23:00 +25°C° 0.4 mm 1 mps 719 mmHg 90%

    24 November, Saturday

    Time Temperature Precipitation Wind Pressure Humidity
    00:00 +24°C° 0.5 mm 1 mps 719 mmHg 91%
    01:00 +24°C° 0.5 mm 1 mps 718 mmHg 92%
    02:00 +24°C° 0.5 mm 1 mps 718 mmHg 92%
    03:00 +24°C° 0.3 mm 1 mps 718 mmHg 93%
    04:00 +23°C° 0.3 mm 1 mps 718 mmHg 93%
    05:00 +23°C° 0.3 mm 1 mps 719 mmHg 94%
    06:00 +23°C° 0.1 mm 1 mps 719 mmHg 92%
    07:00 +23°C° 0.1 mm 1 mps 720 mmHg 90%
    08:00 +24°C° 0.1 mm 1 mps 720 mmHg 89%
    09:00 +25°C° 0 mm 1 mps 720 mmHg 85%
    10:00 +25°C° 0 mm 1 mps 720 mmHg 81%
    11:00 +26°C° 0 mm 1 mps 720 mmHg 77%
    12:00 +27°C° 0.1 mm 2 mps 720 mmHg 73%
    13:00 +28°C° 0.1 mm 2 mps 719 mmHg 68%
    14:00 +30°C° 0.1 mm 2 mps 718 mmHg 64%
    15:00 +29°C° 0.2 mm 2 mps 718 mmHg 65%
    16:00 +29°C° 0.2 mm 2 mps 718 mmHg 67%
    17:00 +29°C° 0.2 mm 2 mps 717 mmHg 69%
    18:00 +27°C° 0.1 mm 1 mps 718 mmHg 73%
    19:00 +26°C° 0.1 mm 1 mps 718 mmHg 78%
    20:00 +25°C° 0.1 mm 1 mps 719 mmHg 83%
    21:00 +25°C° 0.1 mm 1 mps 720 mmHg 84%
    22:00 +25°C° 0.1 mm 1 mps 720 mmHg 85%
    23:00 +24°C° 0.1 mm 1 mps 721 mmHg 86%

    25 November, Sunday

    Time Temperature Precipitation Wind Pressure Humidity
    00:00 +24°C° 0.1 mm 1 mps 720 mmHg 87%
    01:00 +24°C° 0.1 mm 1 mps 720 mmHg 88%
    02:00 +24°C° 0.1 mm 1 mps 720 mmHg 89%
    03:00 +23°C° 0.2 mm 1 mps 719 mmHg 91%
    04:00 +23°C° 0.2 mm 1 mps 719 mmHg 92%
    05:00 +23°C° 0.2 mm 2 mps 719 mmHg 93%
    06:00 +23°C° 0.2 mm 2 mps 720 mmHg 93%
    07:00 +23°C° 0.2 mm 2 mps 720 mmHg 92%
    08:00 +23°C° 0.2 mm 2 mps 720 mmHg 91%
    09:00 +24°C° 0.2 mm 2 mps 720 mmHg 89%
    10:00 +24°C° 0.2 mm 2 mps 720 mmHg 88%
    11:00 +25°C° 0.2 mm 2 mps 719 mmHg 86%
    12:00 +25°C° 0.1 mm 2 mps 719 mmHg 82%
    13:00 +26°C° 0.1 mm 2 mps 718 mmHg 79%
    14:00 +27°C° 0.1 mm 2 mps 717 mmHg 75%
    15:00 +27°C° 0.2 mm 2 mps 717 mmHg 77%
    16:00 +27°C° 0.2 mm 1 mps 716 mmHg 78%
    17:00 +27°C° 0.2 mm 1 mps 716 mmHg 79%
    18:00 +26°C° 0.1 mm 1 mps 716 mmHg 83%
    19:00 +25°C° 0.1 mm 1 mps 717 mmHg 87%
    20:00 +24°C° 0.1 mm 1 mps 717 mmHg 91%
    21:00 +24°C° 0.2 mm 1 mps 718 mmHg 91%
    22:00 +24°C° 0.2 mm 1 mps 718 mmHg 91%
    23:00 +24°C° 0.2 mm 1 mps 718 mmHg 91%

    26 November, Monday

    Time Temperature Precipitation Wind Pressure Humidity
    00:00 +24°C° 0.1 mm 1 mps 718 mmHg 91%
    01:00 +24°C° 0.1 mm 1 mps 717 mmHg 92%
    02:00 +23°C° 0.1 mm 1 mps 717 mmHg 93%
    03:00 +23°C° 0.1 mm 1 mps 717 mmHg 93%
    04:00 +23°C° 0.1 mm 1 mps 717 mmHg 93%
    05:00 +23°C° 0.1 mm 1 mps 717 mmHg 92%
    06:00 +24°C° 0.1 mm 1 mps 718 mmHg 90%
    07:00 +24°C° 0.1 mm 1 mps 718 mmHg 87%
    08:00 +25°C° 0.1 mm 1 mps 719 mmHg 85%
    09:00 +25°C° 0.2 mm 1 mps 719 mmHg 82%
    10:00 +26°C° 0.2 mm 2 mps 719 mmHg 80%
    11:00 +27°C° 0.2 mm 2 mps 719 mmHg 77%
    12:00 +26°C° 0.7 mm 3 mps 719 mmHg 81%
    13:00 +25°C° 0.7 mm 3 mps 719 mmHg 84%
    14:00 +23°C° 0.7 mm 4 mps 718 mmHg 88%
    15:00 +22°C° 0.2 mm 3 mps 718 mmHg 89%
    16:00 +21°C° 0.2 mm 3 mps 719 mmHg 91%
    17:00 +20°C° 0.2 mm 2 mps 719 mmHg 92%
    18:00 +20°C° 0.1 mm 2 mps 719 mmHg 93%
    19:00 +20°C° 0.1 mm 2 mps 720 mmHg 93%
    20:00 +19°C° 0.1 mm 2 mps 721 mmHg 93%
    21:00 +19°C° 0.1 mm 2 mps 721 mmHg 94%
    22:00 +19°C° 0.1 mm 2 mps 721 mmHg 94%
    23:00 +20°C° 0.1 mm 1 mps 722 mmHg 94%
    Show more